Location: Sternwarte auf dem Internationalen Platz Vogelsang IP
(50.5721°N, 6.4398°E)
Time: 01:15:13
(UTC+01:00)

Transit 4A - Visible Passes

Search period start: 06 December 2025 00:00
Search period end: 16 December 2025 00:00
Orbit: 869 x 972 km, 66.8° (Epoch: 05 December)

Date Brightness Start Highest point End Pass type
(mag) Time Alt. Az. Time Alt. Az. Time Alt. Az.
06 Dec 9.8 03:53:29 24° ENE 03:53:29 24° ENE 03:56:54 10° E visible
06 Dec 7.8 05:36:59 47° NW 05:38:51 88° NE 05:44:59 10° SE visible
06 Dec 9.2 07:20:28 11° WNW 07:24:27 20° WSW 07:28:47 10° SSW visible
07 Dec 9.5 04:02:33 29° ENE 04:02:33 29° ENE 04:06:19 10° E visible
07 Dec 7.8 05:46:04 50° WNW 05:47:36 70° WSW 05:53:41 10° SSE visible
07 Dec 9.5 07:29:56 10° WNW 07:32:55 14° WSW 07:35:56 10° SW visible
08 Dec 9.3 04:11:42 34° E 04:11:42 34° E 04:15:36 10° ESE visible
08 Dec 8.0 05:55:14 45° W 05:56:18 51° WSW 06:02:11 10° SSE visible
09 Dec 9.1 04:20:57 37° ESE 04:20:57 37° ESE 04:24:45 10° ESE visible
09 Dec 8.4 06:04:29 36° WSW 06:04:56 37° WSW 06:10:28 10° S visible
10 Dec 9.1 04:30:16 36° SE 04:30:16 36° SE 04:33:46 10° SE visible
10 Dec 8.9 06:13:48 26° WSW 06:13:48 26° WSW 06:18:28 10° SSW visible
10 Dec 9.9 19:33:43 10° S 19:34:27 13° S 19:34:27 13° S visible
11 Dec 9.2 04:39:39 30° SSE 04:39:39 30° SSE 04:42:36 10° SSE visible
11 Dec 9.4 06:23:11 18° WSW 06:23:11 18° WSW 06:26:05 10° SSW visible
11 Dec 9.4 19:41:56 10° S 19:43:55 21° S 19:43:55 21° S visible
12 Dec 9.5 04:49:07 23° SSE 04:49:07 23° SSE 04:51:15 10° SSE visible
12 Dec 9.9 06:32:39 11° WSW 06:32:39 11° WSW 06:32:58 10° SW visible
12 Dec 9.6 18:08:42 10° SE 18:09:48 12° ESE 18:09:48 12° ESE visible
12 Dec 9.0 19:50:24 10° SSW 19:53:20 31° SSW 19:53:20 31° SSW visible
13 Dec 9.9 04:58:38 15° S 04:58:38 15° S 04:59:43 10° S visible
13 Dec 9.2 18:15:32 10° SSE 18:19:09 18° ESE 18:19:09 18° ESE visible
13 Dec 8.7 19:59:03 10° SW 20:02:41 41° SW 20:02:41 41° SW visible
14 Dec 8.7 18:23:08 10° SSE 18:27:50 26° ESE 18:28:26 26° E visible
14 Dec 8.6 20:07:53 10° SW 20:11:57 46° WSW 20:11:57 46° WSW visible
15 Dec 8.3 18:31:09 10° S 18:36:23 37° ESE 18:37:37 33° E visible
15 Dec 8.8 20:16:52 10° WSW 20:21:08 43° W 20:21:08 43° W visible
